Weather History for Le Mars, IA

Change the Weather History Date:

Monday, April 14, 2014

  Actual Average Record
Temperature  
Mean Temperature 32 °F -  
Max Temperature 41 °F 56 °F 87 °F (2003)
Min Temperature 24 °F 35 °F 20 °F (1971)
Degree Days  
Heating Degree Days 32    
Moisture  
Dew Point 16 °F    
Average Humidity 56    
Maximum Humidity 75    
Minimum Humidity 31    
Precipitation  
Precipitation 0.00 in - - ()
Sea Level Pressure  
Sea Level Pressure 30.12 in    
Wind  
Wind Speed 18 mph (NNW)    
Max Wind Speed 30 mph    
Max Gust Speed 40 mph    
Visibility 10 miles    
Events      
Averages and records for this station are not official NWS values.
T = Trace of Precipitation, MM = Missing Value Source: NWS Daily Summary

Daily Weather History Graph

Daily Weather History Graph

Search for Another Location

Airport:

Trip Planner

Search our weather history database for the weather conditions in past years. The results will help you decide how hot, cold, wet, or windy it might be!

Date:

Astronomy

Apr. 14, 2014 Rise Set
Actual Time 6:44 AM CDT 8:05 PM CDT
Civil Twilight 6:15 AM CDT 8:35 PM CDT
Nautical Twilight 5:40 AM CDT 9:10 PM CDT
Astronomical Twilight 5:03 AM CDT 9:48 PM CDT
Moon 7:45 PM CDT (4/14) 6:18 AM CDT (4/14)
Length of Visible Light 14h 19m
Length of Day
13h 21m
Full, 100% of the Moon is Illuminated
Apr 14
Full
Apr 15
Full
Apr 22
Last Quarter
Apr 29
New
May 6
First Quarter

Hourly Weather History & Observations

Time (CDT) Temp. Windchill Dew Point Humidity Pressure Visibility Wind Dir Wind Speed Gust Speed Precip Events Conditions
12:15 AM 30.2 °F 16.5 °F 23.0 °F 75% 30.02 in 10.0 mi North 24.2 mph - N/A   Overcast
12:35 AM 30.2 °F 15.7 °F 23.0 °F 75% 30.02 in 9.0 mi North 27.6 mph 35.7 mph N/A   Overcast
12:55 AM 28.4 °F 12.7 °F 21.2 °F 74% 30.02 in 8.0 mi North 29.9 mph 36.8 mph N/A   Overcast
1:15 AM 28.4 °F 13.5 °F 21.2 °F 74% 30.03 in 8.0 mi North 26.5 mph 40.3 mph N/A   Scattered Clouds
1:35 AM 28.4 °F 14.1 °F 19.4 °F 69% 30.03 in 9.0 mi North 24.2 mph 32.2 mph N/A   Mostly Cloudy
1:55 AM 28.4 °F 14.4 °F 17.6 °F 64% 30.03 in 10.0 mi North 23.0 mph 33.4 mph N/A   Scattered Clouds
2:15 AM 26.6 °F 12.0 °F 17.6 °F 69% 30.02 in 9.0 mi North 23.0 mph 38.0 mph N/A   Partly Cloudy
2:35 AM 26.6 °F 12.7 °F 17.6 °F 69% 30.03 in 10.0 mi North 20.7 mph - N/A   Clear
2:55 AM 26.6 °F 12.7 °F 17.6 °F 69% 30.04 in 10.0 mi North 20.7 mph 29.9 mph N/A   Partly Cloudy
3:15 AM 26.6 °F 12.4 °F 15.8 °F 64% 30.03 in 10.0 mi North 21.9 mph 31.1 mph N/A   Scattered Clouds
3:35 AM 26.6 °F 12.7 °F 15.8 °F 64% 30.04 in 10.0 mi North 20.7 mph 34.5 mph N/A   Scattered Clouds
3:55 AM 26.6 °F 12.0 °F 15.8 °F 64% 30.05 in 10.0 mi North 23.0 mph 31.1 mph N/A   Partly Cloudy
4:15 AM 26.6 °F 12.7 °F 17.6 °F 69% 30.07 in 10.0 mi North 20.7 mph 29.9 mph N/A   Scattered Clouds
4:35 AM 26.6 °F 13.8 °F 17.6 °F 69% 30.08 in 10.0 mi North 17.3 mph 27.6 mph N/A   Partly Cloudy
4:55 AM 26.6 °F 13.8 °F 17.6 °F 69% 30.09 in 10.0 mi NNW 17.3 mph 28.8 mph N/A   Partly Cloudy
5:15 AM 26.6 °F 12.4 °F 15.8 °F 64% 30.06 in 10.0 mi North 21.9 mph 31.1 mph N/A   Scattered Clouds
5:35 AM 26.6 °F 13.8 °F 17.6 °F 69% 30.08 in 10.0 mi NNW 17.3 mph 26.5 mph N/A   Overcast
5:55 AM 26.6 °F 13.8 °F 17.6 °F 69% 30.09 in 10.0 mi North 17.3 mph 24.2 mph N/A   Mostly Cloudy
6:15 AM 24.8 °F 11.1 °F 17.6 °F 74% 30.10 in 10.0 mi NNW 18.4 mph 27.6 mph N/A   Mostly Cloudy
6:35 AM 24.8 °F 11.5 °F 17.6 °F 74% 30.11 in 10.0 mi NNW 17.3 mph 26.5 mph N/A   Scattered Clouds
6:55 AM 24.8 °F 10.7 °F 17.6 °F 74% 30.12 in 10.0 mi NNW 19.6 mph 26.5 mph N/A   Partly Cloudy
7:15 AM 24.8 °F 10.7 °F 17.6 °F 74% 30.14 in 10.0 mi NNW 19.6 mph - N/A   Clear
7:35 AM 24.8 °F 11.9 °F 17.6 °F 74% 30.14 in 10.0 mi NNW 16.1 mph 24.2 mph N/A   Clear
7:55 AM 24.8 °F 11.9 °F 17.6 °F 74% 30.14 in 10.0 mi NNW 16.1 mph - N/A   Clear
8:15 AM 24.8 °F 11.9 °F 15.8 °F 69% 30.15 in 10.0 mi NNW 16.1 mph - N/A   Clear
8:35 AM 26.6 °F 14.3 °F 15.8 °F 64% 30.16 in 10.0 mi NNW 16.1 mph 23.0 mph N/A   Clear
8:55 AM 26.6 °F 14.3 °F 15.8 °F 64% 30.17 in 10.0 mi NNW 16.1 mph 23.0 mph N/A   Clear
9:15 AM 26.6 °F 13.1 °F 15.8 °F 64% 30.17 in 10.0 mi NNW 19.6 mph 25.3 mph N/A   Clear
9:35 AM 26.6 °F 15.2 °F 14.0 °F 59% 30.16 in 10.0 mi NNW 13.8 mph 23.0 mph N/A   Clear
9:55 AM 28.4 °F 16.6 °F 14.0 °F 55% 30.17 in 10.0 mi NNW 16.1 mph - N/A   Clear
10:15 AM 28.4 °F 17.5 °F 14.0 °F 55% 30.18 in 10.0 mi North 13.8 mph 19.6 mph N/A   Clear
10:35 AM 28.4 °F 16.6 °F 14.0 °F 55% 30.18 in 10.0 mi NNW 16.1 mph - N/A   Clear
10:55 AM 30.2 °F 20.2 °F 12.2 °F 47% 30.19 in 10.0 mi NNW 12.7 mph 21.9 mph N/A   Clear
11:15 AM 30.2 °F 19.8 °F 12.2 °F 47% 30.19 in 10.0 mi NNW 13.8 mph - N/A   Clear
11:35 AM 32.0 °F 21.6 °F 12.2 °F 44% 30.19 in 10.0 mi NNW 15.0 mph - N/A   Clear
11:55 AM 32.0 °F 22.1 °F 12.2 °F 44% 30.19 in 10.0 mi North 13.8 mph 21.9 mph N/A   Clear
12:35 PM 33.8 °F 24.8 °F 12.2 °F 41% 30.18 in 10.0 mi North 12.7 mph 19.6 mph N/A   Clear
12:55 PM 35.6 °F 26.6 °F 14.0 °F 41% 30.18 in 10.0 mi North 13.8 mph 19.6 mph N/A   Clear
1:15 PM 37.4 °F 29.3 °F 15.8 °F 41% 30.17 in 10.0 mi NNW 12.7 mph 20.7 mph N/A   Clear
1:35 PM 37.4 °F 29.3 °F 14.0 °F 38% 30.16 in 10.0 mi NNW 12.7 mph 21.9 mph N/A   Scattered Clouds
1:55 PM 37.4 °F 29.3 °F 15.8 °F 41% 30.16 in 10.0 mi NNW 12.7 mph 20.7 mph N/A   Scattered Clouds
2:15 PM 39.2 °F 31.6 °F 17.6 °F 42% 30.15 in 10.0 mi NNW 12.7 mph 20.7 mph N/A   Mostly Cloudy
2:35 PM 39.2 °F 29.6 °F 14.0 °F 36% 30.15 in 10.0 mi NNW 19.6 mph - N/A   Mostly Cloudy
3:15 PM 39.2 °F 31.2 °F 14.0 °F 36% 30.13 in 10.0 mi North 13.8 mph 20.7 mph N/A   Mostly Cloudy
3:35 PM 39.2 °F 30.8 °F 15.8 °F 39% 30.13 in 10.0 mi NW 15.0 mph - N/A   Scattered Clouds
3:55 PM 39.2 °F 30.5 °F 14.0 °F 36% 30.13 in 10.0 mi NNW 16.1 mph - N/A   Mostly Cloudy
4:15 PM 39.2 °F 30.5 °F 14.0 °F 36% 30.13 in 10.0 mi NNW 16.1 mph - N/A   Mostly Cloudy
4:35 PM 39.2 °F 32.0 °F 14.0 °F 36% 30.12 in 10.0 mi NW 11.5 mph 19.6 mph N/A   Scattered Clouds
4:55 PM 41.0 °F 32.8 °F 14.0 °F 33% 30.12 in 10.0 mi NW 16.1 mph - N/A   Mostly Cloudy
5:15 PM 41.0 °F 34.7 °F 14.0 °F 33% 30.12 in 10.0 mi WNW 10.4 mph 16.1 mph N/A   Partly Cloudy
5:35 PM 39.2 °F 30.2 °F 10.4 °F 31% 30.11 in 10.0 mi North 17.3 mph 23.0 mph N/A   Mostly Cloudy
5:55 PM 39.2 °F 32.0 °F 12.2 °F 33% 30.12 in 10.0 mi NNW 11.5 mph 18.4 mph N/A   Mostly Cloudy
6:15 PM 39.2 °F 32.5 °F 12.2 °F 33% 30.12 in 10.0 mi NNW 10.4 mph 17.3 mph N/A   Mostly Cloudy
6:35 PM 39.2 °F 31.6 °F 12.2 °F 33% 30.13 in 10.0 mi NW 12.7 mph 19.6 mph N/A   Mostly Cloudy
6:55 PM 37.4 °F 27.8 °F 12.2 °F 36% 30.13 in 10.0 mi NNW 17.3 mph 25.3 mph N/A   Mostly Cloudy
7:15 PM 37.4 °F 29.3 °F 14.0 °F 38% 30.13 in 10.0 mi NNW 12.7 mph - N/A   Partly Cloudy
7:35 PM 35.6 °F 29.2 °F 14.0 °F 41% 30.13 in 10.0 mi NNW 8.1 mph 15.0 mph N/A   Partly Cloudy
7:55 PM 33.8 °F 26.4 °F 15.8 °F 48% 30.14 in 10.0 mi NNW 9.2 mph - N/A   Partly Cloudy
8:15 PM 32.0 °F 24.8 °F 15.8 °F 51% 30.14 in 10.0 mi NNW 8.1 mph - N/A   Mostly Cloudy
8:35 PM 33.8 °F 26.4 °F 15.8 °F 48% 30.15 in 10.0 mi North 9.2 mph - N/A   Scattered Clouds
8:55 PM 32.0 °F 24.8 °F 15.8 °F 51% 30.16 in 10.0 mi North 8.1 mph - N/A   Clear
9:15 PM 30.2 °F 24.3 °F 15.8 °F 55% 30.16 in 10.0 mi North 5.8 mph - N/A   Clear
9:35 PM 30.2 °F 25.4 °F 17.6 °F 60% 30.17 in 10.0 mi North 4.6 mph - N/A   Clear
9:55 PM 28.4 °F 22.2 °F 17.6 °F 64% 30.17 in 10.0 mi NNW 5.8 mph - N/A   Clear
10:15 PM 26.6 °F - 19.4 °F 74% 30.18 in 10.0 mi Calm Calm - N/A   Clear
10:35 PM 26.6 °F - 17.6 °F 69% 30.18 in 10.0 mi Calm Calm - N/A   Clear
10:55 PM 26.6 °F 19.1 °F 17.6 °F 69% 30.18 in 10.0 mi NNW 6.9 mph - N/A   Clear
11:15 PM 26.6 °F 20.0 °F 17.6 °F 69% 30.18 in 10.0 mi North 5.8 mph - N/A   Clear
11:35 PM 26.6 °F 20.0 °F 17.6 °F 69% 30.18 in 10.0 mi North 5.8 mph - N/A   Partly Cloudy